Weather History for Yuma MCAS, AZ

Change the Weather History Date:

Monday, October 29, 2012

  Actual Average Record
Temperature  
Mean Temperature 75 °F 73 °F  
Max Temperature 91 °F 85 °F 98 °F (1952)
Min Temperature 58 °F 60 °F 39 °F (1971)
Degree Days  
Heating Degree Days 0 0  
Month to date heating degree days 0 0  
Since 1 July heating degree days 0 0  
Cooling Degree Days 10 8  
Month to date cooling degree days 436 375  
Year to date cooling degree days 4771 4549  
Growing Degree Days 24 (Base 50)    
Moisture  
Dew Point 30 °F    
Average Humidity 22    
Maximum Humidity 36    
Minimum Humidity 7    
Precipitation  
Precipitation 0.00 in 0.01 in 0.05 in (2007)
Month to date precipitation 0.03 0.20  
Year to date precipitation 2.37 2.82  
Sea Level Pressure  
Sea Level Pressure 29.99 in    
Wind  
Wind Speed 2 mph (NNW)    
Max Wind Speed 8 mph    
Max Gust Speed 10 mph    
Visibility 10 miles    
Events      
T = Trace of Precipitation, MM = Missing Value Source: NWS Daily Summary

Daily Weather History Graph

Daily Weather History Graph

Search for Another Location

Airport:

Trip Planner

Search our weather history database for the weather conditions in past years. The results will help you decide how hot, cold, wet, or windy it might be!

Date:

Astronomy

Oct. 29, 2012 Rise Set
Actual Time 6:53 AM MST 5:49 PM MST
Civil Twilight 6:28 AM MST 6:15 PM MST
Nautical Twilight 5:59 AM MST 6:44 PM MST
Astronomical Twilight 5:30 AM MST 7:12 PM MST
Moon 5:47 PM MST (10/29) 6:46 AM MST (10/29)
Length of Visible Light 11h 46m
Length of Day
10h 55m
Full, 100% of the Moon is Illuminated
Oct 29
Full
Oct 29
Full
Nov 6
Last Quarter
Nov 13
New
Nov 20
First Quarter

Hourly Weather History & Observations

Time (MST) Temp. Dew Point Humidity Pressure Visibility Wind Dir Wind Speed Gust Speed Precip Events Conditions
12:55 AM 64.9 °F 33.1 °F 31% 29.96 in 10.0 mi Calm Calm - N/A   Clear
1:55 AM 64.0 °F 34.0 °F 33% 29.96 in 10.0 mi Calm Calm - N/A   Clear
2:55 AM 62.1 °F 32.0 °F 32% 29.96 in 10.0 mi Calm Calm - N/A   Clear
3:55 AM 61.0 °F 34.0 °F 36% 29.97 in 10.0 mi WSW 5.8 mph - N/A   Clear
4:55 AM 60.1 °F 34.0 °F 38% 29.97 in 10.0 mi Calm Calm - N/A   Clear
5:55 AM 59.0 °F 30.0 °F 33% 29.98 in 10.0 mi Calm Calm - N/A   Clear
6:55 AM 60.1 °F 28.9 °F 31% 29.99 in 10.0 mi ENE 3.5 mph - N/A   Clear
7:55 AM 61.0 °F 30.9 °F 32% 30.03 in 10.0 mi Calm Calm - N/A   Smoke
8:55 AM 66.0 °F 28.9 °F 25% 30.05 in 10.0 mi North 3.5 mph - N/A   Clear
9:55 AM 71.1 °F 28.9 °F 21% 30.06 in 10.0 mi NE 3.5 mph - N/A   Clear
10:55 AM 77.0 °F 33.1 °F 20% 30.05 in 10.0 mi NE 5.8 mph - N/A   Clear
11:55 AM 82.0 °F 30.9 °F 16% 30.03 in 10.0 mi Variable 5.8 mph - N/A   Clear
12:55 PM 86.0 °F 27.0 °F 12% 30.01 in 10.0 mi North 3.5 mph - N/A   Clear
1:55 PM 88.0 °F 21.9 °F 9% 29.98 in 10.0 mi Calm Calm - N/A   Clear
2:55 PM 90.0 °F 18.0 °F 7% 29.97 in 10.0 mi Calm Calm - N/A   Clear
3:55 PM 90.0 °F 21.9 °F 8% 29.96 in 10.0 mi West 4.6 mph - N/A   Clear
4:55 PM 89.1 °F 23.0 °F 9% 29.95 in 10.0 mi Calm Calm - N/A   Clear
5:55 PM 84.9 °F 30.0 °F 14% 29.95 in 10.0 mi SSW 3.5 mph - N/A   Clear
6:55 PM 80.1 °F 32.0 °F 17% 29.96 in 10.0 mi West 4.6 mph - N/A   Clear
7:55 PM 75.9 °F 33.1 °F 21% 29.96 in 10.0 mi Calm Calm - N/A   Clear
8:55 PM 73.9 °F 32.0 °F 21% 29.97 in 10.0 mi WNW 3.5 mph - N/A   Clear
9:55 PM 70.0 °F 33.1 °F 26% 29.98 in 10.0 mi Calm Calm - N/A   Clear
10:55 PM 66.9 °F 37.0 °F 33% 29.98 in 10.0 mi Calm Calm - N/A   Clear
11:55 PM 66.0 °F 37.9 °F 36% 29.98 in 10.0 mi Calm Calm - N/A   Clear